User: anonymous   Login
Location: Unspecified
(0.0000°N, 0.0000°E)
Time: 00:14:15
(UTC+00:00)
Language:

ONEWEB-0034 - Orbit

View from above orbital plane
View from above orbital plane
View from above satellite
View from above satellite

Ground track
Ground track

The orbit is defined by the following mean orbital elements,

1 45454U          26145.62900720 +.00000000 +00000-0 -84621-3 0 00004
2 45454  87.8917  25.5531 0001793  80.4614 279.6716 13.10935887    01
Epoch (UTC): 25 May 2026 15:05:46
Eccentricity: 0.0001793
inclination: 87.8917°
perigee height: 1218 km
apogee height: 1221 km
right ascension of ascending node: 25.5531°
argument of perigee: 80.4614°
revolutions per day: 13.10935887
mean anomaly at epoch: 279.6716°

The dashed part of the orbit path shows where the satellite is in the earth's shadow,  

DLR